• Join FlightAware (Why Join?)
  • Login
  • US Flag 
07:21PM EDT


 

Airport Tracker/Info


-or-


 

Live Flight TrackerFlight Track Log ✈ SBE67 ✈ 24-Apr-2014 ✈ KISN - KAUS

Flight Track Log - Related Links

Times and Time Zones

All times are in EDT time to prevent confusion due to time zone crossing. See the SBE67 flight status page for this flight to view local times or setup timezone preferences in your user account.

Time Position Orientation Groundspeed Altitude Reporting Facility
EDT Latitude Longitude Course Direction KTS MPH feet Rate Location/Type
02:53PM 48.1514 -103.7103 214° Southwest 229 264 4,500  Level Minneapolis Center
02:54PM 48.0683 -103.5940 158° South  Level Estimated
02:54PM 48.0819 -103.6772 162° South 247 284 7,500  Level Minneapolis Center
02:55PM 47.9549 -103.5443 161° South  Level Estimated
02:55PM 48.0061 -103.6433 163° South 266 306 10,000  Level Minneapolis Center
02:56PM 47.8474 -103.4709 155° Southeast  Level FlightAware Approximate
02:56PM 47.9111 -103.5919 160° South 291 335 13,900  Level Salt Lake Center
02:57PM 47.7339 -103.4218 165° South  Level Estimated
02:57PM 47.8203 -103.5481 162° South 321 369 15,600  Level Salt Lake Center
02:58PM 47.6204 -103.3728 161° South  Level Estimated
02:59PM 47.7231 -103.5017 162° South 349 402 17,700  Level Salt Lake Center
03:00PM 47.6203 -103.4572 164° South 367 422 20,100 2,040 Climbing Salt Lake Center
03:01PM 47.5167 -103.4081 162° South 378 435 22,000 1,620 Climbing Salt Lake Center
03:02PM 47.4067 -103.3594 163° South 395 455 23,500 1,440 Climbing Salt Lake Center
03:03PM 47.2908 -103.3072 163° South 421 484 24,900 1,380 Climbing Minneapolis Center
03:04PM 47.1706 -103.2519 163° South 445 512 26,300 1,260 Climbing Minneapolis Center
03:05PM 47.0464 -103.1981 164° South 459 528 27,600 1,620 Climbing Minneapolis Center
03:06PM 46.8944 -103.1303 163° South 468 539 29,700 1,920 Climbing Minneapolis Center
03:07PM 46.7725 -103.0758 163° South 466 536 31,600 1,740 Climbing Minneapolis Center
03:08PM 46.6547 -103.0269 164° South 449 517 33,300 1,440 Climbing Minneapolis Center
03:09PM 46.5428 -102.9789 164° South 430 495 34,600 780 Climbing Minneapolis Center
03:10PM 46.4303 -102.9306 164° South 426 490 35,000 180 Climbing Minneapolis Center
03:11PM 46.3142 -102.8792 163° South 429 494 35,000  Level Minneapolis Center
03:12PM 46.1931 -102.8258 163° South 446 513 35,000  Level Minneapolis Center
03:13PM 46.0439 -102.7650 164° South 461 531 35,000  Level Minneapolis Center
03:14PM 45.9197 -102.7111 163° South 462 532 35,000  Level Minneapolis Center
03:15PM 45.7883 -102.6589 165° South 467 537 35,000  Level Minneapolis Center
03:16PM 45.6611 -102.6047 163° South 475 547 35,000  Level Minneapolis Center
03:17PM 45.5336 -102.5508 164° South 476 548 35,000  Level Minneapolis Center
03:18PM 45.4028 -102.4994 165° South 483 556 35,000  Level Minneapolis Center
03:19PM 45.2747 -102.4450 163° South 485 558 35,000  Level Minneapolis Center
03:20PM 45.1186 -102.3803 164° South 485 558 35,000  Level Minneapolis Center
03:21PM 44.9883 -102.3278 164° South 485 558 35,000  Level Minneapolis Center
03:22PM 44.8578 -102.2758 164° South 485 558 35,000  Level Minneapolis Center
03:23PM 44.8044 -102.2536 164° South 487 560 35,000  Level Denver Center
03:24PM 44.6478 -102.1900 164° South 488 562 35,000  Level Denver Center
03:25PM 44.5169 -102.1378 164° South 488 562 35,000  Level Denver Center
03:26PM 44.3864 -102.0872 165° South 488 562 35,000  Level Denver Center
03:27PM 44.2553 -102.0342 164° South 489 563 35,000  Level Denver Center
03:28PM 44.1231 -101.9803 164° South 492 566 35,000 120 Level Denver Center
03:29PM 43.9928 -101.9278 164° South 493 567 35,300 780 Climbing Denver Center
03:30PM 43.8439 -101.8681 164° South 479 551 36,600 780 Climbing Denver Center
03:31PM 43.7231 -101.8231 165° South 458 527 37,000 180 Climbing Denver Center
03:32PM 43.5978 -101.7731 164° South 465 535 37,000  Level Denver Center
03:33PM 43.4711 -101.7250 165° South 471 542 37,000  Level Denver Center
03:34PM 43.3428 -101.6753 164° South 476 548 37,000  Level Denver Center
03:35PM 43.2133 -101.6253 164° South 480 552 37,000  Level Denver Center
03:36PM 43.0578 -101.5658 164° South 484 557 37,000  Level Denver Center
03:37PM 42.9253 -101.5150 164° South 483 556 37,000  Level Denver Center
03:38PM 42.8022 -101.4686 165° South 482 555 37,000  Level Denver Center
03:39PM 42.6781 -101.4228 165° South 482 555 37,000  Level Denver Center
03:40PM 42.5336 -101.3681 164° South 482 555 37,000  Level Denver Center
03:41PM 42.4108 -101.3225 165° South 479 551 37,000  Level Denver Center
03:42PM 42.2667 -101.2672 164° South 480 552 37,000  Level Denver Center
03:43PM 42.1433 -101.2222 165° South 480 552 37,000  Level Denver Center
03:44PM 41.9986 -101.1686 165° South 481 554 37,000  Level Denver Center
03:45PM 41.8753 -101.1242 165° South 480 552 37,000  Level Denver Center
03:46PM 41.7300 -101.0839 168° South 480 552 37,000  Level Denver Center
03:47PM 41.6053 -101.0722 176° South 472 543 37,000  Level Denver Center
03:48PM 41.4583 -101.0592 176° South 472 543 37,000  Level Denver Center
03:49PM 41.3339 -101.0492 177° South 471 542 37,000  Level Denver Center
03:51PM 41.1869 -101.0372 176° South 472 543 37,000  Level Denver Center
03:52PM 41.0614 -101.0272 177° South 472 543 37,000  Level Denver Center
03:53PM 40.9164 -101.0075 174° South 473 544 37,000  Level Denver Center
03:54PM 40.7950 -100.9581 163° South 478 550 37,000  Level Denver Center
03:55PM 40.6542 -100.9022 163° South 478 550 37,000  Level Denver Center
03:56PM 40.5322 -100.8578 165° South 478 550 37,000  Level Denver Center
03:57PM 40.3886 -100.8022 164° South 480 552 37,000  Level Denver Center
03:58PM 40.2653 -100.7567 164° South 483 556 37,000  Level Denver Center
03:59PM 40.1208 -100.7039 164° South 483 556 37,000  Level Denver Center
04:00PM 39.9967 -100.6567 164° South 483 556 37,000  Level Denver Center
04:01PM 39.8717 -100.6106 164° South 485 558 37,000  Level Denver Center
04:02PM 39.7269 -100.5586 165° South 485 558 37,000  Level Denver Center
04:03PM 39.6031 -100.5131 164° South 484 557 37,000  Level Denver Center
04:04PM 39.4581 -100.4581 164° South 485 558 37,000  Level Denver Center
04:05PM 39.3328 -100.4153 165° South 485 558 37,000  Level Denver Center
04:06PM 39.1875 -100.3611 164° South 485 558 37,000  Level Denver Center
04:07PM 39.0619 -100.3158 164° South 488 562 37,000  Level Denver Center
04:08PM 38.9169 -100.2647 165° South 489 563 37,000  Level Denver Center
04:09PM 38.7897 -100.2178 164° South 487 560 37,000  Level Kansas City Center
04:10PM 38.6642 -100.1728 164° South 488 562 37,000  Level Kansas City Center
04:11PM 38.5164 -100.1225 165° South 488 562 37,000  Level Kansas City Center
04:12PM 38.3897 -100.0767 164° South 489 563 37,000  Level Kansas City Center
04:13PM 38.2411 -100.0258 165° South 491 565 37,000  Level Kansas City Center
04:14PM 38.1133 -99.9806 164° South 492 566 37,000  Level Kansas City Center
04:15PM 37.9650 -99.9283 164° South 492 566 37,000  Level Kansas City Center
04:16PM 37.8367 -99.8839 165° South 493 567 37,000  Level Kansas City Center
04:17PM 37.6875 -99.8328 165° South 493 567 37,000  Level Kansas City Center
04:18PM 37.5589 -99.7883 165° South 494 568 37,000  Level Kansas City Center
04:19PM 37.4308 -99.7431 164° South 495 570 37,000  Level Kansas City Center
04:20PM 37.2797 -99.6922 165° South 497 572 37,000  Level Kansas City Center
04:21PM 37.1508 -99.6492 165° South 498 573 37,000  Level Kansas City Center
04:23PM 37.0133 -99.6017 165° South 500 575 37,000  Level Kansas City Center
04:24PM 36.8786 -99.5561 165° South 501 577 37,000  Level Kansas City Center
04:25PM 36.7156 -99.5025 165° South 501 577 37,000  Level Kansas City Center
04:26PM 36.5797 -99.4558 165° South 502 578 37,000  Level Kansas City Center
04:27PM 36.4450 -99.4100 165° South 503 579 37,000  Level Kansas City Center
04:28PM 36.3100 -99.3658 165° South 503 579 37,000  Level Kansas City Center
04:29PM 36.1800 -99.3219 165° South 503 579 37,000  Level Kansas City Center
04:30PM 36.0183 -99.2686 165° South 503 579 37,000  Level Kansas City Center
04:31PM 35.8842 -99.2228 165° South 503 579 37,000  Level Kansas City Center
04:32PM 35.7497 -99.1800 166° South 505 581 37,000  Level Fort Worth Center
04:33PM 35.5867 -99.1267 165° South 506 582 37,000  Level Fort Worth Center
04:34PM 35.4533 -99.0672 160° South 510 587 37,000  Level Fort Worth Center
04:35PM 35.3231 -98.9981 157° South 510 587 37,000  Level Fort Worth Center
04:36PM 35.1908 -98.9358 159° South 510 587 37,000  Level Fort Worth Center
04:37PM 35.0589 -98.8678 157° South 510 587 37,000  Level Fort Worth Center
04:38PM 34.9261 -98.8025 158° South 511 588 37,000  Level Fort Worth Center
04:39PM 34.7647 -98.7283 159° South 512 589 37,000  Level Fort Worth Center
04:40PM 34.6314 -98.6631 158° South 515 593 37,000  Level Fort Worth Center
04:41PM 34.4989 -98.5981 158° South 514 592 37,000  Level Fort Worth Center
04:42PM 34.3669 -98.5342 158° South 513 590 37,000  Level Fort Worth Center
04:43PM 34.2367 -98.4703 158° South 508 585 37,000  Level Fort Worth Center
04:44PM 34.1031 -98.4061 158° South 502 578 37,000  Level Fort Worth Center
04:45PM 33.9744 -98.3436 158° South 502 578 37,000  Level Fort Worth Center
04:46PM 33.8206 -98.2706 158° South 499 574 37,000  Level Fort Worth Center
04:47PM 33.6928 -98.2092 158° South 497 572 37,000  Level Fort Worth Center
04:48PM 33.5564 -98.1444 158° South 497 572 37,000  Level Fort Worth Center
04:49PM 33.4381 -98.0886 159° South 495 570 37,000  Level Fort Worth Center
04:51PM 33.3117 -98.0286 158° South 490 564 37,000  Level Fort Worth Center
04:52PM 33.1600 -97.9575 159° South 490 564 37,000  Level Fort Worth Center
04:53PM 33.0347 -97.8994 159° South 490 564 37,000  Level Fort Worth Center
04:54PM 32.9069 -97.8394 158° South 492 566 37,000  Level Fort Worth Center
04:55PM 32.7803 -97.7800 158° South 492 566 37,000  Level Fort Worth Center
04:56PM 32.6544 -97.7214 159° South 492 566 37,000 -300 Level Fort Worth Center
04:57PM 32.5017 -97.6506 159° South 491 565 36,400 -1,140 Descending Fort Worth Center
04:58PM 32.3761 -97.5939 159° South 489 563 34,700 -1,740 Descending Fort Worth Center
04:59PM 32.2525 -97.5369 159° South 484 557 32,900 -1,800 Descending Fort Worth Center
05:00PM 32.1308 -97.4808 159° South 477 549 31,000 -1,980 Descending Fort Worth Center
05:01PM 32.0097 -97.4261 159° South 471 542 28,900 -2,040 Descending Fort Worth Center
05:02PM 31.8814 -97.3661 158° South 466 536 26,800 -1,800 Descending Fort Worth Center
05:03PM 31.7636 -97.3131 159° South 457 526 25,200 -1,500 Descending Fort Worth Center
05:04PM 31.6250 -97.2761 167° South 421 484 23,700 -1,440 Descending Fort Worth Center
05:05PM 31.5103 -97.2614 174° South 415 478 22,300 -840 Descending Fort Worth Center
05:06PM 31.3956 -97.2394 171° South 416 479 22,000 -180 Descending Fort Worth Center
05:07PM 31.2839 -97.2206 172° South 409 471 22,000 -660 Level Fort Worth Center
05:08PM 31.1733 -97.2236 181° South 403 464 20,700 -1,800 Descending Fort Worth Center
05:09PM 31.0725 -97.2625 198° South 388 447 18,300 -2,700 Descending Fort Worth Center
05:10PM 30.9614 -97.3083 199° South 368 423 15,200 -2,280 Descending Fort Worth Center
05:11PM 30.8708 -97.3403 197° South 360 414 13,600 -1,260 Descending Fort Worth Center
05:12PM 30.8083 -97.3639 198° South 313 360 13,000 -480 Descending Houston Center
05:13PM 30.7261 -97.3958 198° South 311 358 12,800 -780 Descending Houston Center
05:14PM 30.6447 -97.4206 195° South 308 354 11,400 -1,260 Descending Houston Center
05:15PM 30.5561 -97.4181 179° South 272 313 10,200 -1,500 Descending Houston Center
05:16PM 30.4872 -97.4175 180° South 253 291 8,400 -1,500 Descending Houston Center
05:17PM 30.4164 -97.4147 178° South 253 291 7,200 -1,440 Descending Houston Center
05:18PM 30.3931 -97.4783 247° West 233 268 5,500 -1,440 Descending Houston Center
05:19PM 30.3925 -97.5536 270° West 232 267 4,300 -1,020 Descending Houston Center
05:20PM 30.3950 -97.6233 272° West 224 258 3,500 -600 Descending Houston Center
05:22PM 30.3003 -97.6806 208° Southwest 204 235 2,600 -660 Descending Houston Center
05:23PM 30.2597 -97.6792 178° South 173 199 1,500 -780 Descending Houston Center
05:24PM 30.2214 -97.6800 181° South 150 173 1,100 -420 Descending Houston Center